Lamar, CO

3:03 AM MDT on June 23, 2017 (GMT -0600)
Lamar Municipal

Weather History for KLAA - October, 2012

Change the Weather History Date:

Sunday, October 21, 2012

  Actual Average Record
Temperature  
Mean Temperature 61 °F 51 °F  
Max Temperature 85 °F 68 °F 95 °F (1921)
Min Temperature 37 °F 33 °F 24 °F (1996)
Degree Days  
Heating Degree Days 4 14  
Month to date heating degree days 237 218  
Since 1 July heating degree days 286 301  
Cooling Degree Days 0 0  
Month to date cooling degree days 1 8  
Year to date cooling degree days 1626 1120  
Growing Degree Days 12 (Base 50)    
Moisture  
Dew Point 27 °F    
Average Humidity 35    
Maximum Humidity 59    
Minimum Humidity 10    
Precipitation  
Precipitation 0.00 in 0.03 in 0.49 in (1979)
Month to date precipitation 0.36  
Year to date precipitation 5.86  
Sea Level Pressure  
Sea Level Pressure 29.64 in    
Wind  
Wind Speed 8 mph (North)    
Max Wind Speed 17 mph    
Max Gust Speed 22 mph    
Visibility 10 miles    
Events      
T = Trace of Precipitation, MM = Missing Value Source: NWS Daily Summary

Daily Weather History Graph

Daily Weather History Graph

Search for Another Location

Airport or City:

Trip Planner

Search our weather history database for the weather conditions in past years. The results will help you decide how hot, cold, wet, or windy it might be!

Date:

Astronomy

Oct. 21, 2012 Rise Set
Actual Time 7:05 AM MDT 6:04 PM MDT
Civil Twilight 6:39 AM MDT 6:30 PM MDT
Nautical Twilight 6:08 AM MDT 7:01 PM MDT
Astronomical Twilight 5:37 AM MDT 7:32 PM MDT
Moon 1:26 PM MDT (10/21) No Moon Set
Length of Visible Light 11h 51m
Length of Day
10h 58m
Waxing Crescent, 46% of the Moon is Illuminated
Oct 21
Waxing Crescent
Oct 21
First Quarter
Oct 29
Full
Nov 6
Last Quarter
Nov 13
New

Hourly Weather History & Observations

Time (MDT) Temp. Windchill Dew Point Humidity Pressure Visibility Wind Dir Wind Speed Gust Speed Precip Events Conditions
12:53 AM 51.1 °F - 28.0 °F 41% 29.56 in 10.0 mi Calm Calm - N/A   Clear
1:53 AM 43.0 °F - 27.0 °F 53% 29.57 in 10.0 mi Calm Calm - N/A   Clear
2:53 AM 39.9 °F 37.8 °F 27.0 °F 60% 29.57 in 10.0 mi WNW 3.5 mph - N/A   Clear
3:53 AM 42.1 °F - 28.0 °F 58% 29.59 in 10.0 mi Calm Calm - N/A   Clear
4:53 AM 43.0 °F 37.2 °F 25.0 °F 49% 29.59 in 10.0 mi SW 10.4 mph - N/A   Clear
5:53 AM 41.0 °F 38.0 °F 25.0 °F 53% 29.63 in 10.0 mi SW 4.6 mph - N/A   Clear
6:53 AM 42.1 °F 36.6 °F 25.0 °F 51% 29.67 in 10.0 mi West 9.2 mph - N/A   Clear
7:53 AM 45.0 °F 41.2 °F 25.0 °F 46% 29.68 in 10.0 mi West 6.9 mph - N/A   Clear
8:53 AM 54.0 °F - 21.9 °F 29% 29.68 in 10.0 mi West 10.4 mph - N/A   Clear
9:53 AM 62.1 °F - 19.9 °F 20% 29.67 in 10.0 mi West 11.5 mph - N/A   Clear
10:53 AM 71.1 °F - 21.9 °F 16% 29.63 in 10.0 mi West 12.7 mph - N/A   Clear
11:53 AM 78.1 °F - 23.0 °F 13% 29.61 in 10.0 mi NW 6.9 mph - N/A   Clear
12:53 PM 81.0 °F - 23.0 °F 12% 29.60 in 10.0 mi NNW 9.2 mph - N/A   Clear
1:53 PM 84.9 °F - 24.1 °F 11% 29.58 in 10.0 mi NNE 5.8 mph - N/A   Clear
2:53 PM 84.9 °F - 23.0 °F 10% 29.58 in 10.0 mi NE 11.5 mph 16.1 mph N/A   Clear
3:53 PM 82.0 °F - 26.1 °F 13% 29.60 in 10.0 mi NE 15.0 mph - N/A   Clear
4:53 PM 77.0 °F - 28.0 °F 17% 29.63 in 10.0 mi ENE 15.0 mph - N/A   Clear
5:53 PM 71.1 °F - 28.9 °F 21% 29.67 in 10.0 mi ENE 10.4 mph - N/A   Clear
6:53 PM 61.0 °F - 30.9 °F 32% 29.71 in 10.0 mi ENE 8.1 mph - N/A   Clear
7:53 PM 57.0 °F - 32.0 °F 39% 29.72 in 10.0 mi ENE 5.8 mph - N/A   Clear
8:53 PM 53.1 °F - 33.1 °F 47% 29.72 in 10.0 mi ENE 5.8 mph - N/A   Clear
9:53 PM 53.1 °F - 33.1 °F 47% 29.71 in 10.0 mi ENE 8.1 mph - N/A   Clear
10:53 PM 51.1 °F - 33.1 °F 50% 29.70 in 10.0 mi ENE 3.5 mph - N/A   Clear
11:53 PM 51.1 °F - 33.1 °F 50% 29.69 in 10.0 mi ENE 5.8 mph - N/A   Clear